Hourly Data Report for October 10, 2015

All times are specified in Local Standard Time (LST). Add 1 hour to adjust for Daylight Saving Time where and when it is observed.

KUGLUKTUK A
NUNAVUT

67°49'00.000" N
115°08'38.000" W
22.60 m
2300903
71938
YCO

Download Data

Hourly Data (October 2015)
Hourly Data Report for October 10, 2015
Temp Definition
°C
Dew Point Temp Definition
°C
Rel Hum Definition
%
Wind Dir Definition
10's deg

Wind Spd Definition
km/h
Visibility Definition
km
Stn Press Definition
kPa
Hmdx Definition


Wind Chill Definition


Weather Definition


TIME
00:00 Legend Double Dagger -11.0 -12.6 88 23 18 24.1 100.00   -19 LegendNANA
01:00 Legend Double Dagger -9.6 -11.4 87 23 18 24.1 99.93   -17 LegendNANA
02:00 Legend Double Dagger -8.9 -11.0 85 25 18 24.1 99.88   -16 Mostly Cloudy
03:00 Legend Double Dagger -8.4 -10.0 88 25 15 16.1 99.86   -15 Snow
04:00 Legend Double Dagger -7.7 -9.1 90 27 14 24.1 99.82   -14 Snow
05:00 Legend Double Dagger -8.1 -9.2 92 27 18 16.1 99.80   -15 Snow
06:00 Legend Double Dagger -7.3 -8.1 94 26 11 19.3 99.77   -12 Snow
07:00 Legend Double Dagger -8.1 -9.0 93 27 17 24.1 99.74   -15 LegendNANA
08:00 Legend Double Dagger -7.5 -8.3 94 26 16 24.1 99.72   -14 Mostly Cloudy
09:00 Legend Double Dagger -7.3 -8.1 94 26 14 24.1 99.70   -13 LegendNANA
10:00 Legend Double Dagger -5.9 -7.1 91 27 16 24.1 99.70   -12 LegendNANA
11:00 Legend Double Dagger -6.1 -7.9 87 27 14 24.1 99.69   -12 Mostly Cloudy
12:00 Legend Double Dagger -4.9 -6.9 86 26 10 19.3 99.69   -9 Snow
13:00 Legend Double Dagger -3.8 -7.1 78 34 17 9.7 99.69   -10 Snow
14:00 Legend Double Dagger -4.6 -8.2 76 1 18 24.1 99.71   -11 Snow
15:00 Legend Double Dagger -4.7 -8.8 73 3 19 24.1 99.72   -11 LegendNANA
16:00 Legend Double Dagger -4.2 -9.1 69 35 16 24.1 99.76   -10 LegendNANA
17:00 Legend Double Dagger -4.5 -8.3 75 2 21 24.1 99.79   -11 Snow Showers
18:00 Legend Double Dagger -4.5 -7.9 77 1 27 24.1 99.81   -12 Snow Showers
19:00 Legend Double Dagger -4.8 -8.6 75 36 23 12.9 99.84   -12 Snow
20:00 Legend Double Dagger -4.6 -7.9 78 1 21 16.1 99.87   -11 Snow
21:00 Legend Double Dagger -4.8 -7.6 81 1 22 19.3 99.92   -12 Snow
22:00 Legend Double Dagger -4.9 -7.8 80 36 31 19.3 99.99   -13 Snow
23:00 Legend Double Dagger -5.3 -8.6 78 36 20 24.1 100.05   -12 Snow

Notes on Data Quality.

Legend

  • E = Estimated
  • M = Missing
  • NA = Not Available
  • ‡ = Partner data that is not subject to review by the National Climate Archives
Date modified: